Regional Weather Roundup
Issued by NWS Charleston, SC

Current Version | Previous Version | Graphics & Text | Print | Product List | Glossary On
Versions: 1 2 3 4 5 6 7 8 9 10 11 12 13 14 15 16 17 18 19 20 21 22 23 24 25 26 27 28 29 30 31 32 33 34 35 36 37 38 39 40 41 42 43 44 45 46 47 48 49 50
000 ASUS42 KCHS 281311 RWRCHS REGIONAL WEATHER ROUNDUP NATIONAL WEATHER SERVICE CHARLESTON SC 800 AM EST SAT FEB 28 2015 NOTE: "FAIR" INDICATES FEW OR NO CLOUDS BELOW 12,000 FEET WITH NO SIGNIFICANT WEATHER AND/OR OBSTRUCTIONS TO VISIBILITY. NOT ALL STATIONS ARE QUALITY CONTROLLED BY THE NATIONAL WEATHER SERVICE. USE DATA WITH CAUTION...ESPECIALLY DEWPOINT OBSERVATIONS. SCZ027-030-031-034>040-042>050-281400- ...SOUTHEAST SOUTH CAROLINA... CITY SKY/WX TMP DP RH WIND PRES REMARKS N CHARLESTON CLOUDY 38 32 79 NE13 30.58R WCI 30 WATERFRONT PRK N/A 41 N/A N/A N20 N/A MOUNT PLEASANT LGT RAIN 37 34 87 N7 30.59R WCI 32 PINOPOLIS N/A 39 32 75 NE14 30.53R WCI 31 MONCKS CORNER FAIR 37 30 75 NE7G17 30.62R WCI 32 SUMMERVILLE FAIR 37 32 81 N10 30.62R WCI 30 BEAUFORT MCAS CLOUDY 42 37 82 NE18 30.55R BEAUFORT ARPT CLOUDY 43 39 87 NE17G25 30.54R HILTON HEAD IS CLOUDY 45 39 81 N12G20 30.52R WALTERBORO CLOUDY 39 34 81 NE9 30.60R WCI 33 ALLENDALE PTSUNNY 39 32 75 NE9 30.59R WCI 33 ...SOUTHERN MIDLANDS AND PEE DEE... CITY SKY/WX TMP DP RH WIND PRES REMARKS GEORGETOWN NOT AVBL KINGSTREE NOT AVBL ORANGEBURG MOSUNNY 36 27 69 NE10 30.62R WCI 28 BARNWELL FAIR 37 32 81 NE12 30.61R WCI 30 AIKEN FAIR 34 28 80 NE10 30.64R WCI 26 MANNING FAIR 34 30 86 N8 30.64R WCI 27 COLUMBIA PTSUNNY 35 23 61 NE8 30.65R WCI 29 SUMTER MOSUNNY 32 26 77 NE13 30.64R WCI 23 FLORENCE MOSUNNY 32 26 78 NE12 30.66R HAZE WCI 23 MYRTLE BEACH PTSUNNY 34 27 75 NE16 30.63R WCI 23 N MYRTLE BEACH PTSUNNY 33 27 78 NE13 30.62R WCI 24 $$ GAZ063-065-086>088-099>101-113>116-118-119-134>141-150-281400- ...SOUTHEAST GEORGIA... CITY SKY/WX TMP DP RH WIND PRES REMARKS SAVANNAH ARPT CLOUDY 44 36 73 NE9 30.53R HUNTER AAF CLOUDY 46 38 74 NE8 30.49R FORT STEWART CLOUDY 46 38 74 NE12 30.48R STATESBORO CLOUDY 41 37 85 NE7 30.56R SYLVANIA PTSUNNY 40 37 87 NE7 30.57R WCI 35 CLAXTON CLOUDY 43 37 81 NE12 30.53R ...CSRA...CENTRAL AND FAR SOUTHEAST GEORGIA... CITY SKY/WX TMP DP RH WIND PRES REMARKS THOMSON MOSUNNY 37 32 82 NE9 30.64R WCI 31 AUGUSTA-BUSH MOSUNNY 37 28 70 NE8 30.62R WCI 31 AUGUSTA-DANIEL MOSUNNY 39 26 59 NE9 30.62R WCI 33 SWAINSBORO PTSUNNY 41 32 70 NE9G16 30.55R VIDALIA CLOUDY 43 37 81 NE12G18 30.51R EASTMAN CLOUDY 41 40 97 NE8 30.54R HAZLEHURST CLOUDY 45 39 77 NE8 30.48R ALMA CLOUDY 47 38 71 VRB5 30.47R WAYCROSS CLOUDY 50 45 81 NE6 30.46R JESUP CLOUDY 50 43 76 NE9 30.47R BAXLEY CLOUDY 46 39 76 NE13 30.47R BRUNSWICK CLOUDY 52 45 76 NE15G21 30.46R SAINT SIMONS CLOUDY 50 45 83 NE17G29 30.44R $$ SCZ027-028-034-036>038-045-046-048>050-GAZ119-141-281400- ...LAKE AND SUPPLEMENTAL COASTAL OBSERVATIONS... STATION/POSITION TIME TEMP WIND PRES WAVE SWELL AIR SEA DIR/SP/G HT/PER HT/PER/DIR (UTC) (F) (DEG/KT/KT) (MB) (FT/S) (FT/S/D) UPR LAKE MARION NOT AVBL WINYAH BAY NOT AVBL LAKE MURRAY 1200 33 20/ 3/ 6 1036.6R ACE BASIN NERRS NOT AVBL FORT PULASKI 1206 47 49 30/ 13/ 17 1032.4R SAPELO ISLAND 1200 49 30/ 15 1030.0R $$ ANZ835-935-AMZ111-154-330-350-352-354-370-450-454-472-281400- ...C-MAN AND BUOY OBSERVATIONS... STATION/POSITION TIME TEMP WIND PRES WAVE SWELL AIR SEA DIR/SP/G HT/PER HT/PER/DIR (UTC) (F) (DEG/KT/KT) (MB) (FT/S) (FT/S/D) BUOY 41004 1250 54 65 40/ 27/ 33 1032.1R 8/ 7 2/10 BUOY 41008 1250 54 52 40/ 19/ 25 1030.0R 6/ 6 2/100/11 FOLLY BEACH CMAN 1300 41 20/ 19/ 23 1035.5R CAPERS NEARSHORE NOT AVBL FRIPP NEARSHORE 1200 47 50/ 23/ 27 1030.7 STATION/POSITION TIME TEMP WIND PRES WAVE SWELL AIR SEA DIR/SP/G HT/PER HT/PER/DIR (UTC) (F) (DEG/KT/KT) (MB) (FT/S) (FT/S/D) 5E ST. MARYS GA 1221 53 N/A 6/ 7 2/140/11 FRYING PAN BUOY 1250 47 63 50/ 25/ 31 1035.3R 9/ 7 2/ 90/ 9 BUOY 41025 NOT AVBL CAPE LOOKOUT NC 1300 34 20/ 21/ 25 1038.1R BUOY 41002 1250 66 70 50/ 17/ 23 1031.1R 10/ 7 5/ 20/10 BUOY 41010 1220 67 70 60/ 21/ 23 1027.0R ST AUGUSTINE FL 1300 56 350/ 15/ 16 1029.2R $$

USA.gov is the U.S. government's official web portal to all federal, state and local government web resources and services.